Weather observations for the past three days for
Jacksonville Municipal Airport
Imperial (Metric)
Date Time (cdt) Wind (mph) Vis. (mi.) Weather Sky Cond. Temperature (ºF) Relative Humidity Wind Chill (°F) Heat Index (°F) Pressure Precipitation (in)
Air Dwpt 6 hour altimeter (in) sea level (mb) 1 hr 3 hr 6 hr
Max. Min.
15 19:35 SW 12 10.00 Fair CLR 87.1 75.2 68% 97 29.76 0.0
15 19:15 S 14 G 17 10.00 Fair CLR 88 75.4 66% 98 29.74 0.0
15 18:55 S 15 G 20 10.00 Fair CLR 88.9 75.6 91.4 88.3 65% 100 29.75 0.0
15 18:35 S 15 G 21 10.00 Fair CLR 89.4 76.6 66% 102 29.75 0.0
15 18:15 S 13 G 22 10.00 Fair CLR 89.6 77.4 67% 103 29.75 0.0
15 17:55 S 13 10.00 Fair CLR 90 77.4 67% 104 29.75 0.0
15 17:35 S 18 G 25 10.00 Fair CLR 90.5 76.3 63% 103 29.76 0.0
15 17:15 S 13 G 17 10.00 Fair CLR 90.7 78.3 67% 106 29.77 0.0
15 16:55 SW 10 10.00 Fair CLR 90.7 77.5 65% 105 29.78 0.0
15 16:35 S 14 G 21 10.00 Fair CLR 90.9 76.5 63% 104 29.79 0.0
15 16:15 S 13 G 18 10.00 Fair CLR 91.4 77.7 64% 106 29.8 0.0
15 15:55 S 13 G 17 10.00 Fair CLR 91.2 77.7 65% 106 29.81 0.0
15 15:35 S 12 10.00 Fair CLR 91 77.9 65% 106 29.82 0.0
15 15:15 S 9 10.00 Fair CLR 91.4 78.6 66% 107 29.83 0.0
15 14:55 S 8 10.00 Fair CLR 91 79 68% 108 29.83 0.0
15 14:35 S 10 G 16 10.00 Fair CLR 90.7 78.4 67% 106 29.84 0.0
15 14:15 S 10 G 17 10.00 Fair CLR 90.5 78.3 67% 106 29.84 0.0
15 13:55 SW 8 10.00 Fair CLR 90.1 77.9 67% 105 29.85 0.0
15 13:35 SW 9 10.00 Fair CLR 90.1 78.8 69% 106 29.85 0.0
15 13:15 SW 9 10.00 Fair CLR 88.7 77 68% 101 29.86 0.0
15 12:55 SW 10 10.00 Fair CLR 88.7 77.9 88.7 76.1 71% 102 29.87 0.0
15 12:35 SW 9 10.00 Fair CLR 87.8 76.6 70% 99 29.88 0.0
15 12:15 SW 8 10.00 Fair CLR 86.9 76.3 71% 98 29.88 0.0
15 11:55 SW 9 10.00 Fair CLR 86.5 76.5 72% 97 29.89 0.0
15 11:35 SW 13 G 17 10.00 Fair CLR 86 75.9 72% 96 29.88 0.0
15 11:15 SW 14 10.00 Fair CLR 85.3 75.9 74% 95 29.89 0.0
15 10:55 SW 9 10.00 Fair CLR 84.7 75.6 74% 94 29.89 0.0
15 10:35 SW 13 10.00 Fair CLR 84.2 75.2 74% 92 29.89 0.0
15 10:15 SW 12 G 17 10.00 Fair CLR 83.3 75 76% 91 29.89 0.0
15 09:55 SW 9 10.00 Fair CLR 82.2 75 79% 89 29.9 0.0
15 09:35 SW 13 G 16 10.00 Fair CLR 81.5 74.3 79% 87 29.89 0.0
15 09:15 SW 10 G 17 10.00 Fair CLR 81 74.1 80% 86 29.89 0.0
15 08:55 SW 10 10.00 Fair CLR 80.2 73.6 80% 85 29.89 0.0
15 08:35 SW 10 10.00 Fair CLR 79.7 74.3 84% 84 29.89 0.0
15 08:15 SW 10 10.00 Fair CLR 79 78.3 98% 84 29.89 0.0
15 07:55 SW 9 10.00 Fair CLR 78.3 77.9 99% 81 29.89 0.0
15 07:35 SW 10 10.00 Fair CLR 77.7 77.2 98% 80 29.89 0.0
15 07:15 S 9 10.00 Partly Cloudy SCT002 77 76.3 98% 78 29.89 0.0
15 06:55 SW 7 10.00 Fair CLR 76.1 75.6 79 73.4 98% 75 29.89 0.0
15 06:35 SW 8 10.00 Fair CLR 75.2 74.8 99% 73 29.9 0.0
15 06:15 S 6 10.00 Fair CLR 74.7 74.1 98% 29.9 0.0
15 05:55 S 5 10.00 Fair CLR 73.4 72.9 98% 29.9 0.0
15 05:35 S 3 10.00 Fair CLR 73.9 73.4 98% 29.91 0.0
15 05:15 Calm 10.00 Fair CLR 73.9 73.4 98% 29.91 0.0
15 04:55 E 6 10.00 Partly Cloudy SCT050 74.3 73.8 98% 29.92 0.0
15 04:35 NE 7 10.00 Mostly Cloudy BKN050 75.7 75.2 98% 74 29.93 0.0
15 04:15 S 3 10.00 Partly Cloudy SCT055 77 72.9 87% 78 29.92 0.0
15 03:55 S 6 10.00 Partly Cloudy SCT060 SCT065 77 73.2 88% 78 29.92 0.0
15 03:35 S 8 10.00 Fair CLR 77.2 73.4 88% 79 29.91 0.0
15 03:15 S 8 10.00 Fair CLR 77 74.5 92% 78 29.91 0.0
15 02:55 S 6 10.00 Fair CLR 77.9 73.6 87% 80 29.91 0.0
15 02:35 S 8 10.00 Fair CLR 78.1 73.4 86% 81 29.91 0.0
15 02:15 S 8 10.00 Mostly Cloudy SCT055 BKN070 BKN080 78.1 74.3 88% 81 29.91 0.0
15 01:55 S 6 10.00 Mostly Cloudy SCT055 BKN070 BKN080 78.1 74.5 89% 81 29.92 0.0
15 01:35 S 7 10.00 Partly Cloudy SCT055 77.9 75.9 94% 80 29.92 0.0
15 01:15 SW 6 10.00 Fair CLR 78.8 73.9 85% 82 29.91 0.0
15 00:55 S 8 10.00 Fair CLR 78.8 73.4 85.5 78.8 84% 82 29.9 0.0
15 00:35 S 7 10.00 Fair CLR 79.3 73 81% 83 29.91 0.0
15 00:15 S 8 10.00 Fair CLR 79.5 72.9 80% 83 29.91 0.0
14 23:55 S 10 10.00 Fair CLR 79.5 73 81% 83 29.9 0.0
14 23:35 S 8 10.00 Fair CLR 79.7 73.4 81% 84 29.91 0.0
14 23:15 S 7 10.00 Fair CLR 79.2 73.6 83% 83 29.9 0.0
14 22:55 SW 7 10.00 Fair CLR 79 73.9 85% 83 29.91 0.0
14 22:35 SW 7 10.00 Fair CLR 80.4 73.4 79% 85 29.92 0.0
14 22:15 S 7 10.00 Fair CLR 80.6 73.4 79% 85 29.9 0.0
14 21:55 SW 7 10.00 Fair CLR 81.1 73.4 77% 86 29.9 0.0
14 21:35 SW 8 10.00 Fair CLR 82.2 73.4 75% 88 29.9 0.0
14 21:15 SW 12 G 17 10.00 Fair CLR 83.1 73.4 73% 89 29.89 0.0
14 20:55 S 14 G 23 10.00 Fair CLR 83.3 73.4 72% 90 29.87 0.0
14 20:35 S 13 10.00 Fair CLR 83.5 73.4 72% 90 29.89 0.0
14 20:15 S 12 10.00 Fair CLR 84.2 73.6 71% 91 29.9 0.0
14 19:55 S 8 10.00 Partly Cloudy SCT100 84.6 73.9 71% 92 29.91 0.0
14 19:35 S 8 10.00 Fair CLR 84.6 74.7 72% 93 29.92 0.0
14 19:15 SW 7 10.00 Fair CLR 85.3 75 71% 94 29.92 0.0
14 18:55 W 9 10.00 Fair CLR 85.8 74.8 88.3 84.7 70% 95 29.92 0.0
14 18:35 SW 12 10.00 Fair CLR 86.2 74.7 69% 95 29.92 0.0
14 18:15 SW 13 10.00 Fair CLR 87.1 74.5 66% 96 29.92 0.0
14 17:55 SW 12 G 17 10.00 Fair CLR 87.8 74.8 66% 97 29.92 0.0
14 17:35 SW 14 G 21 10.00 Fair CLR 87.8 74.5 65% 97 29.92 0.0
14 17:15 S 15 G 21 10.00 Fair CLR 88.2 75.7 67% 99 29.93 0.0
14 16:55 S 14 G 22 10.00 Fair CLR 88 75.6 67% 98 29.93 0.0
14 16:35 SW 13 G 20 10.00 Fair CLR 88 75.4 66% 98 29.94 0.0
14 16:15 S 15 G 20 10.00 Fair CLR 87.8 75.7 68% 98 29.95 0.0
14 15:55 SW 17 G 21 10.00 Fair CLR 88.2 75.4 66% 98 29.95 0.0
14 15:35 SW 14 G 18 10.00 Fair CLR 87.8 74.3 64% 97 29.95 0.0
14 15:15 SW 16 G 21 10.00 Fair CLR 87.6 75.4 67% 98 29.96 0.0
14 14:55 SW 10 G 17 10.00 Fair CLR 87.1 75.7 69% 97 29.96 0.0
14 14:35 SW 14 G 21 10.00 Fair CLR 86.5 74.7 68% 95 29.95 0.0
14 14:15 SW 16 G 21 10.00 Fair CLR 86.5 75 69% 96 29.96 0.0
14 13:55 SW 16 G 22 10.00 Fair CLR 85.6 74.5 69% 94 29.96 0.0
14 13:35 S 16 G 22 10.00 Fair CLR 85.8 74.5 69% 94 29.98 0.0
14 13:15 S 13 G 18 10.00 Fair CLR 85.3 73.8 69% 93 29.98 0.0
14 12:55 S 12 G 18 10.00 Fair CLR 84.6 74.3 84.7 74.1 71% 92 29.99 0.0
14 12:35 S 9 10.00 Fair CLR 84.4 75.2 74% 93 30.03 0.0
14 12:15 SW 8 10.00 Fair CLR 83.1 73.9 74% 90 30.03 0.0
14 11:55 SW 6 10.00 Fair CLR 81.9 73.2 75% 87 30.06 0.0
14 11:35 SW 5 10.00 Fair CLR 81.5 72.9 75% 87 30.07 0.0
14 11:15 Calm 10.00 Fair CLR 80.8 72.7 76% 85 30.07 0.0
14 10:55 W 3 10.00 Fair CLR 80.8 72.5 76% 85 30.06 0.0
14 10:35 SW 3 10.00 Fair CLR 80.2 72.9 78% 84 30.05 0.0
14 10:15 W 5 10.00 Fair CLR 79.3 72.5 80% 83 30.05 0.0
14 09:55 SW 8 10.00 Fair CLR 80.2 72.3 77% 84 30.05 0.0
14 09:35 SW 8 10.00 Fair CLR 79.2 73 82% 83 30.04 0.0
14 09:15 SW 10 10.00 Fair CLR 78.3 72.5 83% 81 30.04 0.0
14 08:55 W 10 G 16 10.00 Fair CLR 77.9 72.3 83% 80 30.03 0.0
14 08:35 NW 9 10.00 Partly Cloudy SCT055 SCT075 76.6 72.3 87% 78 30.04 0.0
14 08:15 SW 10 G 16 10.00 Fair CLR 76.3 71.8 86% 77 30.04 0.0
14 07:55 SW 12 G 18 10.00 Partly Cloudy SCT095 77.4 74.7 91% 79 30.04 0.0
14 07:35 SW 10 10.00 Mostly Cloudy BKN095 77.2 76.6 98% 78 30.05 0.0
14 07:15 SW 10 10.00 Mostly Cloudy BKN095 75.7 75.2 98% 74 30.05 0.0
14 06:55 SW 9 10.00 Fair CLR 73.8 73.4 75.4 72.3 99% 30.04 0.0
14 06:35 SW 9 10.00 Fair CLR 73.4 72.9 98% 30.04 0.0
14 06:15 SW 8 10.00 Fair CLR 73.2 72.5 98% 30.03 0.0
14 05:55 SW 8 10.00 Fair CLR 72.9 72.5 99% 30.03 0.0
14 05:35 SW 7 10.00 Fair CLR 73 72.5 98% 30.03 0.0
14 05:15 SW 8 10.00 Fair CLR 72.9 72.5 99% 30.02 0.0
14 04:55 S 8 10.00 Fair CLR 72.9 72.5 99% 30.02 0.0
14 04:35 S 7 10.00 Fair CLR 73.4 72.7 98% 30.02 0.0
14 04:15 S 8 10.00 Fair CLR 73.2 72.5 98% 30.02 0.0
14 03:55 S 8 10.00 Fair CLR 72.9 72.5 99% 30.02 0.0
14 03:35 S 6 10.00 Fair CLR 73 72.3 98% 30.02 0.0
14 03:15 S 7 10.00 Fair CLR 72.9 72.1 98% 30.03 0.0
14 02:55 S 5 10.00 Fair CLR 72.5 71.8 98% 30.04 0.0
14 02:35 S 5 10.00 Fair CLR 72.5 70.7 94% 30.05 0.0
14 02:15 S 3 10.00 Fair CLR 72.7 70.3 92% 30.06 0.0
14 01:55 S 6 10.00 Fair CLR 73.4 69.6 88% 30.06 0.0
14 01:35 S 6 10.00 Fair CLR 73.8 68.9 85% 30.06 0.0
14 01:15 S 8 10.00 Fair CLR 74.8 68.4 80% 30.06 0.0
14 00:55 S 8 10.00 Fair CLR 75.2 68.5 83.3 75.2 80% 76 30.07 0.0
14 00:35 S 9 10.00 Fair CLR 75.7 68.5 78% 77 30.08 0.0
14 00:15 S 7 10.00 Fair CLR 76.3 68.4 77% 78 30.08 0.0
13 23:55 S 9 10.00 Fair CLR 76.3 68.4 77% 78 30.08 0.0
13 23:35 S 7 10.00 Fair CLR 76.3 68.4 77% 78 30.08 0.0
13 23:15 S 8 10.00 Fair CLR 76.1 68.9 78% 77 30.08 0.0
13 22:55 S 6 10.00 Fair CLR 75.4 68.9 80% 76 30.08 0.0
13 22:35 S 6 10.00 Fair CLR 75.6 69.3 81% 76 30.08 0.0
13 22:15 S 7 10.00 Fair CLR 76.3 69.4 79% 77 30.08 0.0
13 21:55 S 5 10.00 Fair CLR 76.5 69.6 79% 78 30.07 0.0
13 21:35 S 6 10.00 Fair CLR 76.8 70 80% 78 30.07 0.0
13 21:15 S 5 10.00 Fair CLR 77.7 70.2 78% 80 30.07 0.0
13 20:55 S 6 10.00 Fair CLR 78.3 70.3 77% 81 30.07 0.0
13 20:35 S 6 10.00 Fair CLR 78.6 70.5 76% 81 30.07 0.0
13 20:15 S 6 10.00 Fair CLR 79.7 70.3 73% 83 30.07 0.0
13 19:55 S 7 10.00 Fair CLR 81.1 69.8 69% 85 30.07 0.0
13 19:35 S 7 10.00 Fair CLR 82.2 69.4 65% 86 30.07 0.0
13 19:15 S 6 10.00 Fair CLR 82.8 69.3 64% 86 30.06 0.0
13 18:55 S 12 3.00 Fair CLR 83.3 68.2 86.9 83.3 60% 86 30.06 0.0
13 18:35 S 10 10.00 Fair CLR 84.2 69.3 61% 88 30.07 0.0
13 18:15 S 9 10.00 Fair CLR 85.1 69.1 59% 89 30.07 0.0
13 17:55 S 13 G 20 10.00 Fair CLR 85.1 67.1 55% 88 30.07 0.0
13 17:35 S 12 10.00 Fair CLR 85.6 72.1 64% 92 30.07 0.0
13 17:15 S 14 G 18 10.00 Fair CLR 85.6 70.3 60% 91 30.07 0.0
13 16:35 S 14 10.00 Fair CLR 86.2 72.3 63% 93 30.08 0.0
13 16:15 S 13 G 18 10.00 Fair CLR 86 72.3 64% 93 30.07 0.0
13 15:55 S 7 10.00 Fair CLR 86.2 72.7 64% 93 30.08 0.0
13 15:35 SW 14 10.00 Fair CLR 86.7 73.4 65% 94 30.09 0.0
13 15:15 S 13 G 16 10.00 Fair CLR 86.5 73.6 65% 94 30.09 0.0
13 14:55 SW 10 G 18 10.00 Partly Cloudy SCT031 86.4 72.3 63% 93 30.1 0.0
13 14:35 SW 9 10.00 Partly Cloudy SCT031 86.4 75.2 69% 96 30.1 0.0
13 14:15 SW 9 10.00 Fair CLR 86.2 73.8 67% 94 30.12 0.0
13 13:55 SW 9 10.00 Fair CLR 86.4 75 69% 96 30.11 0.0
13 13:35 SW 9 10.00 Partly Cloudy SCT029 86 74.8 69% 95 30.12 0.0
13 13:15 S 9 10.00 Partly Cloudy SCT029 85.6 74.7 70% 94 30.12 0.0
13 12:55 S 10 G 16 10.00 Partly Cloudy SCT029 85.3 74.1 85.3 71.8 69% 93 30.13 0.0
13 12:35 S 12 G 16 10.00 Partly Cloudy SCT027 84.7 74.5 71% 93 30.13 0.0
13 12:15 W 9 G 17 10.00 Partly Cloudy SCT027 84.2 73.8 71% 91 30.15 0.0
13 11:55 W 13 10.00 Partly Cloudy SCT027 84.2 73.2 70% 91 30.15 0.0
13 11:35 W 10 10.00 Fair CLR 84 73.4 71% 91 30.15 0.0
13 11:15 W 9 10.00 Fair CLR 84 74.7 74% 92 30.15 0.0
13 10:55 NW 12 10.00 Fair CLR 82.9 73 72% 89 30.15 0.0
13 10:35 W 9 10.00 Fair CLR 82.2 73 74% 88 30.15 0.0
13 10:15 SW 8 10.00 Fair CLR 81.5 72.3 74% 86 30.15 0.0
13 09:55 S 12 10.00 Fair CLR 80.6 72 75% 85 30.15 0.0
13 09:35 S 10 10.00 Fair CLR 79.7 72 77% 83 30.15 0.0
13 09:15 S 6 10.00 Fair CLR 79 72 79% 82 30.15 0.0
13 08:55 S 9 10.00 Fair CLR 77.7 74.1 89% 80 30.15 0.0
13 08:35 S 6 10.00 Fair CLR 77 75.6 95% 78 30.15 0.0
13 08:15 S 8 10.00 Fair CLR 76.1 75.2 97% 75 30.15 0.0
13 07:55 S 8 10.00 Fair CLR 74.5 73.9 98% 30.15 0.0
13 07:35 S 8 10.00 Fair CLR 73.8 73.2 98% 30.15 0.0
13 07:15 S 6 7.00 Partly Cloudy SCT002 72.7 72.1 98% 30.14 0.0
13 06:55 S 6 10.00 Partly Cloudy SCT002 71.6 71.1 72.5 66.9 98% 30.14 0.0
13 06:35 SE 5 10.00 Fair CLR 69.6 69.1 98% 30.14 0.0
13 06:15 S 5 10.00 Fair CLR 68.5 68 98% 30.14 0.0
13 05:55 SE 3 10.00 Fair CLR 67.8 67.3 98% 30.14 0.0
13 05:35 SE 3 10.00 Fair CLR 68.7 68 98% 30.14 0.0
13 05:15 Calm 10.00 Fair CLR 69.4 68.9 98% 30.14 0.0
13 04:55 S 5 10.00 Fair CLR 68.4 67.8 98% 30.13 0.0
13 04:35 Calm 10.00 Fair CLR 67.8 67.1 98% 30.13 0.0
13 04:15 S 5 10.00 Fair CLR 68.5 68 98% 30.13 0.0
13 03:55 Calm 10.00 Fair CLR 67.6 67.1 98% 30.12 0.0
13 03:35 SE 3 10.00 Fair CLR 67.1 66.7 99% 30.11 0.0
13 03:15 Calm 10.00 Fair CLR 68 67.5 98% 30.11 0.0
13 02:55 E 5 10.00 Fair CLR 68.2 67.8 99% 30.11 0.0
13 02:35 Calm 10.00 Fair CLR 70.5 70 98% 30.12 0.0
13 02:15 S 3 10.00 Fair CLR 71.1 70.5 98% 30.11 0.0
13 01:55 Calm 10.00 Fair CLR 72 71.6 99% 30.11 0.0
13 01:35 S 3 10.00 Fair CLR 72 71.4 98% 30.12 0.0
13 01:15 S 5 10.00 Fair CLR 72.1 71.6 98% 30.13 0.0
13 00:55 S 3 10.00 Fair CLR 72.3 71.8 83.3 72.1 98% 30.12 0.0
13 00:35 SE 6 10.00 Fair CLR 72.9 72.5 99% 30.12 0.0
13 00:15 SE 3 10.00 Fair CLR 72.3 71.8 98% 30.12 0.0
12 23:55 SE 6 10.00 Fair CLR 73.2 72.7 98% 30.12 0.0
12 23:35 SE 7 10.00 Fair CLR 73.8 73.2 98% 30.11 0.0
12 23:15 SE 5 10.00 Fair CLR 73.4 72.7 98% 30.12 0.0
12 22:55 Calm 10.00 Fair CLR 74.7 74.1 98% 30.11 0.0
12 22:35 SE 6 10.00 Fair CLR 75.4 75 99% 73 30.11 0.0
12 22:15 E 5 10.00 Fair CLR 75 74.5 98% 73 30.1 0.0
12 21:55 E 5 10.00 Fair CLR 74.7 74.3 99% 30.1 0.0
12 21:15 E 3 10.00 Fair CLR 75.9 75.2 98% 75 30.1 0.0
12 20:55 E 6 10.00 Fair CLR 76.8 76.3 98% 77 30.09 0.0
12 20:35 E 6 10.00 Fair CLR 77.4 77 99% 79 30.09 0.0
12 20:15 E 3 10.00 Fair CLR 79.3 73 81% 83 30.1 0.0
12 19:55 E 3 10.00 Fair CLR 80.6 72.9 77% 85 30.1 0.0
Date Time (cdt) Wind (mph) Vis. (mi.) Weather Sky Cond. Air Dwpt Max. Min. Relative Humidity Wind Chill (°F) Heat Index (°F) altimeter (in) sea level (mb) 1 hr 3 hr 6 hr
6 hour
Temperature (ºF) Pressure Precipitation (in)